[[{"header":{"parameterUnit":"m.s-1","parameterCategory":1,"la1":30.2991,"la2":30.254,"lo1":-89.0895,"lo2":-89.0444,"dy":0.0017,"dx":0.0017,"nx":28,"ny":28,"refTime":"2025-04-18T09:00:00:Z","depth":0,"parameterNumber":2,"parameterNumberName":"U-component_of_WINDS"},"data":[0,0,0,0,0,0,0,0,0,0,0,0,0,0,0,0,0,0,0,0,0,0,0,0,0,0,0,0,0,0,0,0,0,0,0,0,0,0,0,0,0,0,0,0,0,0,0,0,0,0,0,0,0,0,0,0,0,0,-0.0516,-0.0516,0,-0.0562,-0.0563,-0.0564,-0.0588,-0.0588,-0.0588,-0.0588,-0.0636,-0.0637,-0.0639,0,0,0,0,0,0,0,0,0,0,0,0,0,-0.0448,-0.0449,-0.0515,-0.0516,-0.0517,-0.0562,-0.0563,-0.0564,-0.0588,-0.0588,-0.0588,-0.0588,-0.0636,-0.0637,-0.0639,0,0,0,0,0,0,0,0,0,0,0,0,0,-0.0484,-0.045,-0.0515,-0.0534,-0.0536,-0.0562,-0.0563,-0.0564,-0.0588,-0.0588,-0.0588,-0.0588,-0.0635,-0.0637,-0.0639,-0.065,0,0,-0.0645,-0.0646,0,0,0,0,0,0,0,0,-0.0482,-0.0487,-0.0531,-0.0533,-0.0535,-0.0569,-0.0557,-0.0593,-0.0588,-0.0568,-0.0588,-0.0588,-0.0614,-0.0618,-0.0626,-0.0652,-0.0654,-0.0645,-0.0646,-0.0647,-0.0648,0,0,0,0,0,0,0,-0.048,-0.0485,-0.0534,-0.0531,-0.0534,-0.0541,-0.0546,-0.0564,-0.059,-0.057,-0.0572,-0.0577,-0.0615,-0.0624,-0.0628,-0.0655,-0.0645,-0.0647,-0.0648,-0.0649,-0.0694,-0.0694,0,0,0,0,0,0,-0.0474,-0.0483,-0.0533,-0.0536,-0.0508,-0.0542,-0.0548,-0.0558,-0.059,-0.0595,-0.0577,-0.0578,-0.0621,-0.0625,-0.0629,-0.0646,-0.0647,-0.0649,-0.065,-0.0694,-0.0694,-0.0694,0,0,0,0,0,0,-0.0473,-0.0478,-0.0531,-0.051,-0.0517,-0.0543,-0.0555,-0.0559,-0.0569,-0.0595,-0.06,-0.0581,-0.0621,-0.0627,-0.0645,-0.0648,-0.065,-0.0651,-0.0694,-0.0694,-0.0694,-0.0677,0,0,0,0,0,0,-0.0471,-0.0478,-0.0482,-0.051,-0.0518,-0.0545,-0.0555,-0.056,-0.0572,-0.0573,-0.0601,-0.0606,-0.0622,-0.0642,-0.0647,-0.065,-0.0653,-0.0694,-0.0694,-0.0694,-0.0677,-0.0676,-0.0676,0,0,0,0,0,-0.0468,-0.0475,-0.0482,-0.0488,-0.0523,-0.0545,-0.055,-0.0568,-0.0572,-0.0576,-0.0594,-0.0605,-0.0646,-0.0644,-0.0649,-0.0653,-0.0694,-0.0694,-0.0694,-0.0678,-0.0677,-0.0676,0,0,0,0,0,0,-0.0447,-0.0479,-0.0487,-0.0503,-0.0521,-0.0549,-0.0556,-0.0566,-0.0584,-0.0585,-0.0607,-0.0613,-0.063,-0.0643,-0.064,-0.0666,-0.0671,-0.0673,-0.0657,-0.0656,-0.0655,-0.0652,-0.0654,0,0,0,0,0,-0.0444,-0.0458,-0.0486,-0.0497,-0.0506,-0.0529,-0.0539,-0.0552,-0.0572,-0.058,-0.0599,-0.0618,-0.0635,-0.0646,-0.0664,-0.0679,-0.0686,-0.0685,-0.0684,-0.0683,-0.0684,-0.0695,-0.0695,-0.0695,-0.0695,-0.0695,0,0,-0.0438,-0.0457,-0.0465,-0.0493,-0.0509,-0.0524,-0.0535,-0.0551,-0.0563,-0.0582,-0.0601,-0.0615,-0.0638,-0.0656,-0.0664,-0.0667,-0.0686,-0.0683,-0.0682,-0.0684,-0.0695,-0.0695,-0.0695,-0.0695,-0.0695,-0.0695,0,0,-0.0435,-0.0451,-0.0463,-0.0478,-0.0502,-0.0517,-0.052,-0.0547,-0.0557,-0.0576,-0.0592,-0.0606,-0.0636,-0.0652,-0.0664,-0.0668,-0.0679,-0.0673,-0.0669,-0.0679,-0.0679,-0.0679,-0.0681,-0.0682,-0.0674,-0.0674,-0.0674,0,-0.0425,-0.0448,-0.0467,-0.0482,-0.0495,-0.0513,-0.0526,-0.054,-0.0568,-0.0577,-0.058,-0.0618,-0.0635,-0.0656,-0.0658,-0.0666,-0.0671,-0.067,-0.0677,-0.0677,-0.0678,-0.068,-0.0681,-0.0673,-0.0673,-0.0674,-0.0674,0,-0.0435,-0.0451,-0.0458,-0.0484,-0.0498,-0.0511,-0.0533,-0.0544,-0.0556,-0.0571,-0.0591,-0.0612,-0.0635,-0.0641,-0.0652,-0.0665,-0.0666,-0.0673,-0.0678,-0.0677,-0.0679,-0.0681,-0.0672,-0.0672,-0.0673,-0.0673,0,0,-0.042,-0.0458,-0.046,-0.0473,-0.0501,-0.0514,-0.0528,-0.0551,-0.056,-0.0579,-0.0593,-0.0618,-0.0625,-0.0638,-0.0652,-0.066,-0.0664,-0.0666,-0.0667,-0.0666,-0.068,-0.0675,-0.0676,-0.0671,-0.0671,-0.0671,-0.0678,0,-0.0422,-0.0449,-0.0467,-0.0487,-0.0503,-0.0521,-0.0534,-0.0553,-0.0568,-0.0584,-0.0601,-0.0618,-0.0625,-0.0634,-0.0643,-0.0661,-0.0667,-0.0661,-0.0685,-0.0685,-0.0679,-0.0677,-0.0672,-0.0677,-0.0679,-0.068,-0.068,0,-0.0427,-0.0446,-0.0468,-0.0495,-0.0502,-0.0513,-0.0536,-0.055,-0.0573,-0.0583,-0.0599,-0.0613,-0.063,-0.0634,-0.0658,-0.0654,-0.0664,-0.0675,-0.0676,-0.0679,-0.0683,-0.0681,-0.0679,-0.068,-0.0681,-0.0681,-0.0681,0,-0.0415,-0.0446,-0.0463,-0.0473,-0.0505,-0.0513,-0.0527,-0.0549,-0.0561,-0.0581,-0.059,-0.0611,-0.0623,-0.0639,-0.0659,-0.0659,-0.0682,-0.0687,-0.0691,-0.0691,-0.0695,-0.0695,-0.0696,-0.0701,-0.0701,-0.0701,-0.0701,0,-0.0416,-0.0428,-0.0458,-0.0469,-0.0484,-0.0505,-0.052,-0.0535,-0.0555,-0.057,-0.0586,-0.06,-0.0625,-0.0641,-0.0657,-0.0675,-0.068,-0.069,-0.0694,-0.0688,-0.0687,-0.0696,-0.0696,-0.0701,-0.0701,-0.0701,-0.0701,0,-0.0405,-0.0425,-0.0445,-0.0474,-0.0481,-0.0491,-0.0516,-0.0528,-0.0544,-0.0562,-0.0568,-0.0593,-0.0614,-0.0635,-0.0662,-0.0673,-0.0691,-0.0696,-0.0684,-0.0686,-0.069,-0.0689,-0.0697,-0.0699,-0.0702,-0.0702,-0.0702,0,-0.0404,-0.0414,-0.0444,-0.0455,-0.0468,-0.0486,-0.0499,-0.052,-0.0533,-0.056,-0.0568,-0.059,-0.0608,-0.064,-0.0662,-0.0683,-0.0689,-0.0691,-0.0693,-0.0688,-0.069,-0.069,-0.0691,-0.069,-0.069,-0.069,-0.069,0,-0.0401,-0.041,-0.0428,-0.045,-0.0465,-0.0483,-0.0502,-0.051,-0.0535,-0.0549,-0.057,-0.0585,-0.0613,-0.0635,-0.0659,-0.0674,-0.0686,-0.0689,-0.0691,-0.0686,-0.0679,-0.0684,-0.0682,-0.0688,-0.0689,-0.0689,-0.0689,-0.0689,-0.0396,-0.0406,-0.0429,-0.0449,-0.0465,-0.0482,-0.0495,-0.0513,-0.0531,-0.0556,-0.0567,-0.0589,-0.0612,-0.0646,-0.066,-0.0678,-0.0681,-0.0684,-0.0685,-0.0686,-0.0685,-0.0675,-0.0682,-0.0682,-0.0682,-0.0682,-0.0682,0,-0.0394,-0.041,-0.0428,-0.0454,-0.0469,-0.0479,-0.0501,-0.0514,-0.0532,-0.0552,-0.0571,-0.0595,-0.0617,-0.064,-0.0663,-0.0672,-0.0679,-0.0678,-0.0678,-0.0681,-0.068,-0.0676,-0.0672,-0.0672,-0.0672,-0.0672,-0.0672,-0.0672,-0.0395,-0.0414,-0.0426,-0.0454,-0.0469,-0.0491,-0.0502,-0.0519,-0.0535,-0.0562,-0.058,-0.0595,-0.0617,-0.0641,-0.0662,-0.0668,-0.0676,-0.0673,-0.0681,-0.068,-0.0681,-0.0682,-0.0678,-0.0675,-0.0675,-0.0681,-0.0681,-0.0681]},{"header":{"parameterUnit":"m.s-1","parameterCategory":1,"la1":30.2991,"la2":30.254,"lo1":-89.0895,"lo2":-89.0444,"dy":0.0017,"dx":0.0017,"nx":28,"ny":28,"refTime":"2025-04-18T09:00:00:Z","depth":0,"parameterNumber":3,"parameterNumberName":"V-component_of_WINDS"},"data":[0,0,0,0,0,0,0,0,0,0,0,0,0,0,0,0,0,0,0,0,0,0,0,0,0,0,0,0,0,0,0,0,0,0,0,0,0,0,0,0,0,0,0,0,0,0,0,0,0,0,0,0,0,0,0,0,0,0,6.4995,6.4996,0,6.5109,6.511,6.5111,6.5051,6.5048,6.5045,6.5043,6.5153,6.5158,6.5164,0,0,0,0,0,0,0,0,0,0,0,0,0,6.4718,6.4723,6.4995,6.4996,6.4997,6.5108,6.511,6.5111,6.5052,6.5048,6.5045,6.5041,6.5151,6.5158,6.5165,0,0,0,0,0,0,0,0,0,0,0,0,0,6.4835,6.4725,6.4994,6.4981,6.4981,6.5108,6.511,6.5112,6.5053,6.5048,6.5044,6.5039,6.5149,6.5157,6.5166,6.531,0,0,6.5192,6.5196,0,0,0,0,0,0,0,0,6.4829,6.4846,6.4982,6.4982,6.4983,6.5061,6.5053,6.5178,6.5054,6.5025,6.5042,6.5037,6.5126,6.5136,6.5167,6.5315,6.532,6.5193,6.5198,6.5202,6.5204,0,0,0,0,0,0,0,6.4821,6.484,6.5039,6.4984,6.4984,6.4967,6.4979,6.5076,6.5099,6.5028,6.5024,6.5038,6.5125,6.5159,6.5169,6.5321,6.5192,6.52,6.5205,6.5209,6.559,6.5595,0,0,0,0,0,0,6.4814,6.4834,6.5036,6.5043,6.4893,6.4976,6.4989,6.5041,6.5098,6.5103,6.5042,6.5035,6.5146,6.5159,6.5173,6.5343,6.5202,6.521,6.5215,6.5585,6.5591,6.5596,0,0,0,0,0,0,6.4809,6.4833,6.5031,6.4937,6.4961,6.4986,6.5044,6.5045,6.5079,6.5109,6.5112,6.5073,6.5143,6.5161,6.5276,6.5346,6.5214,6.5221,6.5579,6.5587,6.5594,6.5687,0,0,0,0,0,0,6.4801,6.4831,6.4888,6.4939,6.4967,6.5135,6.5048,6.5051,6.5095,6.5087,6.5139,6.5143,6.5141,6.5263,6.5285,6.5356,6.5228,6.5573,6.5582,6.5591,6.5678,6.5697,6.5713,0,0,0,0,0,6.4791,6.4909,6.4891,6.4916,6.5039,6.5139,6.5155,6.5152,6.5101,6.5157,6.5176,6.5141,6.5336,6.5276,6.5299,6.5374,6.5568,6.558,6.5591,6.567,6.5693,6.5713,0,0,0,0,0,0,6.4864,6.4916,6.4896,6.5035,6.5084,6.5129,6.52,6.5177,6.5239,6.5229,6.522,6.5232,6.5352,6.5374,6.5307,6.5515,6.5444,6.546,6.5496,6.5518,6.5535,6.5527,6.5235,0,0,0,0,0,6.4896,6.4976,6.5016,6.5134,6.516,6.5176,6.5219,6.5213,6.5262,6.5281,6.5309,6.5356,6.5427,6.5474,6.5541,6.5681,6.569,6.5744,6.5761,6.5776,6.5789,6.5862,6.5886,6.5633,6.5633,6.5632,0,0,6.4963,6.5001,6.5052,6.515,6.5186,6.5266,6.5193,6.5282,6.534,6.5294,6.5405,6.5427,6.5478,6.5605,6.5663,6.5628,6.5861,6.579,6.5801,6.5807,6.5876,6.59,6.5921,6.564,6.5639,6.5638,0,0,6.5126,6.5165,6.5266,6.5305,6.5362,6.5372,6.5396,6.5445,6.5459,6.557,6.5537,6.5604,6.5728,6.5766,6.5801,6.5977,6.5946,6.5999,6.609,6.6161,6.6181,6.6199,6.6259,6.6281,6.6012,6.6013,6.6013,0,6.5202,6.5324,6.5321,6.5412,6.5454,6.5418,6.5519,6.5556,6.5631,6.566,6.5621,6.5774,6.5806,6.5941,6.5983,6.6014,6.6039,6.5992,6.6179,6.6197,6.6213,6.627,6.6293,6.6019,6.6018,6.6017,6.6017,0,6.5413,6.5497,6.5572,6.5648,6.5699,6.5794,6.5803,6.5854,6.5843,6.5856,6.5968,6.6006,6.6079,6.6111,6.61,6.6243,6.622,6.618,6.6108,6.6243,6.6297,6.6319,6.6027,6.6025,6.6023,6.6022,0,0,6.5625,6.5697,6.5724,6.5757,6.5817,6.5881,6.5973,6.6047,6.609,6.6143,6.6218,6.6323,6.6287,6.6327,6.632,6.6382,6.6516,6.6334,6.6335,6.6365,6.6673,6.6702,6.6728,6.6497,6.6501,6.6505,6.6668,0,6.579,6.5955,6.5954,6.6104,6.6181,6.6147,6.6227,6.6271,6.6285,6.635,6.6365,6.6439,6.6386,6.6409,6.647,6.6487,6.6578,6.6476,6.6564,6.6568,6.6551,6.6756,6.6787,6.694,6.6689,6.6693,6.6696,0,6.6006,6.6067,6.6226,6.6273,6.6305,6.6378,6.6443,6.6507,6.6555,6.656,6.6605,6.6588,6.6679,6.6605,6.6729,6.6659,6.6695,6.6709,6.6715,6.6721,6.6639,6.6766,6.6988,6.7011,6.6729,6.6726,6.6724,0,6.6142,6.6264,6.6374,6.6404,6.6462,6.6513,6.6539,6.6583,6.6626,6.6683,6.6711,6.6777,6.6813,6.6864,6.6864,6.6811,6.6988,6.6915,6.6993,6.6993,6.7031,6.7028,6.726,6.7057,6.7057,6.7056,6.7056,0,6.6326,6.6424,6.6436,6.6504,6.6612,6.6608,6.6714,6.6735,6.6774,6.6843,6.6817,6.6882,6.6879,6.6944,6.6944,6.7045,6.7062,6.7067,6.7066,6.7069,6.7068,6.7091,6.708,6.7062,6.7061,6.706,6.7059,0,6.6496,6.6509,6.6626,6.6672,6.6685,6.6763,6.68,6.6863,6.6875,6.6962,6.6982,6.7,6.7075,6.7081,6.7167,6.7167,6.7289,6.7276,6.7273,6.727,6.7347,6.7339,6.7601,6.7634,6.7411,6.7413,6.7415,0,6.6613,6.6687,6.6741,6.6786,6.6816,6.6889,6.6934,6.6932,6.6979,6.7038,6.7094,6.7166,6.7224,6.7345,6.7364,6.7429,6.7417,6.7504,6.7426,6.7427,6.7416,6.7411,6.7417,6.7519,6.7521,6.7523,6.7525,0,6.6817,6.6819,6.6885,6.6954,6.7008,6.7061,6.7111,6.7149,6.7153,6.7207,6.7284,6.7329,6.7417,6.7489,6.7552,6.7576,6.7551,6.7549,6.757,6.7574,6.7568,6.757,6.7312,6.7543,6.7541,6.754,6.7539,6.7538,6.6962,6.7026,6.7074,6.7148,6.7185,6.7232,6.7293,6.7313,6.7378,6.7451,6.7445,6.753,6.7573,6.7656,6.7685,6.7749,6.7719,6.775,6.7758,6.7765,6.7772,6.7559,6.7761,6.776,6.776,6.7759,6.7759,0,6.7163,6.7192,6.7261,6.7331,6.7389,6.7362,6.7415,6.7464,6.754,6.7583,6.7641,6.7728,6.7797,6.7822,6.7888,6.7935,6.7924,6.7952,6.7948,6.7953,6.7796,6.7771,6.7959,6.7959,6.7959,6.7959,6.7959,6.7959,6.7275,6.7381,6.7389,6.7512,6.7539,6.7624,6.7656,6.7698,6.7732,6.7832,6.7889,6.7905,6.794,6.8009,6.807,6.8075,6.8099,6.8132,6.8132,6.7984,6.7964,6.7945,6.7921,6.8137,6.8138,6.8283,6.8284,6.8285]}]]